Buffalo, WY

5:22 PM MDT on April 26, 2018 (GMT -0600)
Johnson County

Weather History for KBYG - January, 2013

Change the Weather History Date:

Wednesday, January 16, 2013

  Actual Average Record
Temperature  
Mean Temperature 33 °F 28 °F  
Max Temperature 43 °F 39 °F 60 °F (2010)
Min Temperature 23 °F 17 °F -6 °F (2012)
Degree Days  
Heating Degree Days 32 37  
Month to date heating degree days 620 598  
Since 1 July heating degree days 3345 3645  
Cooling Degree Days 0 0  
Month to date cooling degree days 0 0  
Year to date cooling degree days 0 0  
Moisture  
Dew Point 18 °F    
Average Humidity 54    
Maximum Humidity 74    
Minimum Humidity 33    
Precipitation  
Precipitation 0.00 in 0.01 in 0.02 in (2012)
Month to date precipitation 0.09 0.18  
Year to date precipitation 0.09 0.18  
Sea Level Pressure  
Sea Level Pressure 30.21 in    
Wind  
Wind Speed 6 mph (West)    
Max Wind Speed 21 mph    
Max Gust Speed 25 mph    
Visibility 10 miles    
Events      
T = Trace of Precipitation, MM = Missing Value Source: NWS Daily Summary

Daily Weather History Graph

Daily Weather History Graph

Search for Another Location

Airport or City:

Astronomy

Jan. 16, 2013 Rise Set
Actual Time 7:38 AM MST 4:55 PM MST
Civil Twilight 7:06 AM MST 5:27 PM MST
Nautical Twilight 6:30 AM MST 6:03 PM MST
Astronomical Twilight 5:56 AM MST 6:37 PM MST
Moon 10:02 AM MST (1/16) 11:05 PM MST (1/16)
Length of Visible Light 10h 20m
Length of Day
9h 16m
Waxing Crescent, 29% of the Moon is Illuminated
Jan 16
Waxing Crescent
Jan 18
First Quarter
Jan 26
Full
Feb 3
Last Quarter
Feb 10
New

Hourly Weather History & Observations

Time (MST) Temp. Windchill Dew Point Humidity Pressure Visibility Wind Dir Wind Speed Gust Speed Precip Events Conditions
12:53 AM 32.0 °F - 21.0 °F 64% 30.09 in 10.0 mi Calm Calm - N/A   Clear
1:53 AM 32.0 °F 22.1 °F 21.9 °F 66% 30.08 in 10.0 mi South 13.8 mph - N/A   Clear
2:53 AM 30.0 °F 26.5 °F 19.9 °F 66% 30.11 in 10.0 mi East 3.5 mph - N/A   Clear
3:53 AM 24.1 °F - 18.0 °F 77% 30.14 in 10.0 mi Calm Calm - N/A   Clear
4:53 AM 26.1 °F 16.8 °F 17.1 °F 69% 30.12 in 10.0 mi SSW 9.2 mph - N/A   Partly Cloudy
5:53 AM 30.9 °F 25.2 °F 19.0 °F 61% 30.10 in 10.0 mi SSE 5.8 mph - N/A   Clear
6:53 AM 24.1 °F 16.0 °F 16.0 °F 71% 30.14 in 10.0 mi West 6.9 mph - N/A   Clear
7:53 AM 28.9 °F - 16.0 °F 58% 30.15 in 10.0 mi Calm Calm - N/A   Partly Cloudy
8:53 AM 30.9 °F 23.5 °F 17.1 °F 57% 30.18 in 10.0 mi WSW 8.1 mph - N/A   Clear
9:53 AM 37.9 °F 35.5 °F 21.0 °F 51% 30.17 in 10.0 mi WSW 3.5 mph - N/A   Scattered Clouds
10:53 AM 42.1 °F 40.2 °F 16.0 °F 35% 30.18 in 10.0 mi Variable 3.5 mph - N/A   Clear
1:53 PM 39.9 °F 32.5 °F 21.0 °F 47% 30.18 in 10.0 mi North 12.7 mph 23.0 mph N/A   Clear
2:53 PM 39.9 °F 30.5 °F 21.0 °F 47% 30.19 in 10.0 mi North 19.6 mph - N/A   Clear
3:53 PM 39.9 °F 35.8 °F 21.9 °F 49% 30.25 in 10.0 mi North 5.8 mph - N/A   Clear
4:53 PM 37.0 °F 33.3 °F 19.0 °F 48% 30.27 in 10.0 mi WNW 4.6 mph - N/A   Clear
5:53 PM 36.0 °F 32.1 °F 18.0 °F 48% 30.29 in 10.0 mi NW 4.6 mph - N/A   Clear
6:53 PM 30.0 °F - 16.0 °F 56% 30.35 in 10.0 mi Calm Calm - N/A   Clear
7:53 PM 30.9 °F - 16.0 °F 54% 30.35 in 10.0 mi Calm Calm - N/A   Clear
8:53 PM 30.9 °F 27.5 °F 14.0 °F 50% 30.35 in 10.0 mi WSW 3.5 mph - N/A   Clear
9:53 PM 27.0 °F 23.0 °F 12.9 °F 56% 30.35 in 10.0 mi WSW 3.5 mph - N/A   Clear
10:53 PM 28.9 °F 20.4 °F 14.0 °F 54% 30.33 in 10.0 mi WSW 9.2 mph - N/A   Clear
11:53 PM 26.1 °F 20.5 °F 12.9 °F 58% 30.36 in 10.0 mi West 4.6 mph - N/A   Clear